Location: Newark
(20.1720°N, 90.0102°W)
Time: 18:00:31
(UTC+00:00)

Envisat - Visible Passes

Search period start: 25 August 2019 00:00
Search period end: 04 September 2019 00:00
Orbit: 764 x 766 km, 98.1° (Epoch: 25 August)

Date Brightness Start Highest point End Pass type
(mag) Time Alt. Az. Time Alt. Az. Time Alt. Az.
26 Aug 5.6 01:24:31 10° SW 01:28:16 21° W 01:32:02 10° NW visible
27 Aug 3.8 00:46:31 10° S 00:51:28 56° W 00:56:27 10° NNW visible
29 Aug 5.1 01:12:43 10° SSW 01:17:00 28° W 01:21:18 10° NW visible
30 Aug 3.3 00:35:11 10° S 00:40:14 76° WSW 00:45:18 10° NNW visible
31 Aug 5.9 01:40:04 10° SW 01:42:35 14° W 01:45:06 10° WNW visible
01 Sep 4.6 01:01:05 10° SSW 01:05:44 37° W 01:10:24 10° NNW visible
03 Sep 5.7 01:27:49 10° SW 01:31:17 19° W 01:34:46 10° NW visible
